Location: Unspecified
(0.0000°N, 0.0000°E)
Time: 05:56:26
(UTC+00:00)

Courier 1B - Pass Details

Date: 27 September 2023
Orbit: 962 x 1208 km, 28.3° (Epoch: 06 December)

Event Time Altitude Azimuth Distance (km) Brightness Sun altitude
Rises 00:14:09 0° 253° (WSW) 3,746 - -84.1°
Reaches altitude 10° 00:19:07 10° 222° (SW) 2,744 - -82.9°
Maximum altitude 00:21:18 12° 203° (SSW) 2,605 - -82.4°
Drops below altitude 10° 00:23:27 10° 183° (S) 2,712 - -81.8°
Sets 00:28:18 0° 152° (SSE) 3,639 - -80.6°
